Location: Beddau
(51.5575°N, 3.3561°W)
Time: 11:22:16
(UTC+00:00)

Cosmos 1727 Rocket - Pass Details

Date: 03 March 2021
Orbit: 961 x 996 km, 82.9° (Epoch: 16 April)

Event Time Altitude Azimuth Distance (km) Brightness Sun altitude
Rises 20:25:44 0° 349° (N) 3,661 7.4 -23.5°
Reaches altitude 10° 20:28:14 10° 349° (NNW) 2,710 6.7 -23.9°
Maximum altitude 20:34:26 83° 263° (W) 978 3.9 -24.7°
Enters shadow 20:37:44 30° 178° (S) 1,662 5.0 -25.2°
